Location: New Canada
(47.1017°N, 68.5042°W)
Time: 02:42:34
(UTC+00:00)

COSMOS 1818 DEB - Pass Details

Date: 03 December 2023
Orbit: 754 x 785 km, 65.0° (Epoch: 12 November)

Event Time Altitude Azimuth Distance (km) Brightness Sun altitude
Rises 23:39:43 0° 305° (NW) 3,274 ? -28.8°
Reaches altitude 10° 23:44:09 10° 339° (NNW) 2,350 ? -29.5°
Enters shadow 23:45:37 11° 355° (N) 2,258 ? -29.8°
